Location: Biltmore Gardens
(41.6070°N, 83.4666°W)
Time: 14:56:59
(UTC+00:00)

Resurs 1-3 - Pass Details

Date: 14 July 2020
Orbit: 630 x 632 km, 97.9° (Epoch: 12 August)

Event Time Altitude Azimuth Distance (km) Brightness Sun altitude
Exits shadow 01:45:15 - 164° (SSE) 2,693 6.3 -6.7°
Reaches altitude 10° 01:46:55 10° 163° (SSE) 2,006 5.7 -7.0°
Maximum altitude 01:51:17 84° 77° (ENE) 641 3.6 -7.6°
Drops below altitude 10° 01:55:42 10° 349° (N) 2,021 7.0 -8.3°
Sets 01:57:54 0° 349° (NNW) 2,933 7.9 -8.6°
